QPF
0.01 0.02 0.07 0.12 0.10 0.09 0.08 0.12 0.11 0.07 0.09 0.11 0.11 0.10 0.10 0.09 0.07 0.06 0.06 0.07 0.06 0.07 0.12 0.13 0.09 0.08 0.08 0.06 0.05 0.06 0.07 0.08 0.11 0.11 0.11 0.12 0.13 0.13 0.12 0.11 0.11 0.09 0.08
0.01 0.02 0.06 0.09 0.07 0.08 0.09 0.07 0.08 0.09 0.10 0.12 0.14 0.12 0.11 0.08 0.07 0.07 0.06 0.06 0.06 0.08 0.12 0.08 0.07 0.07 0.09 0.10 0.09 0.08 0.06 0.06 0.07 0.08 0.09 0.08 0.10 0.12 0.13 0.13 0.10 0.10 0.10
0.01 0.02 0.04 0.06 0.06 0.06 0.08 0.08 0.13 0.16 0.14 0.13 0.14 0.14 0.13 0.09 0.08 0.10 0.07 0.06 0.07 0.08 0.09 0.07 0.06 0.06 0.07 0.09 0.07 0.05 0.04 0.05 0.05 0.05 0.06 0.07 0.06 0.08 0.09 0.11 0.11 0.12 0.13
0.01 0.01 0.04 0.06 0.06 0.07 0.09 0.10 0.13 0.18 0.19 0.14 0.13 0.13 0.13 0.10 0.08 0.08 0.08 0.07 0.07 0.07 0.07 0.06 0.05 0.07 0.07 0.06 0.07 0.06 0.03 0.03 0.03 0.03 0.04 0.06 0.09 0.09 0.09 0.10 0.12 0.12 0.12
0.01 0.01 0.05 0.09 0.07 0.06 0.07 0.08 0.09 0.11 0.15 0.14 0.12 0.10 0.10 0.10 0.08 0.07 0.08 0.08 0.07 0.07 0.07 0.06 0.08 0.08 0.06 0.05 0.05 0.06 0.04 0.03 0.02 0.01 0.03 0.06 0.10 0.11 0.08 0.09 0.11 0.12 0.11
0.01 0.01 0.05 0.09 0.06 0.06 0.07 0.07 0.09 0.10 0.12 0.11 0.09 0.09 0.09 0.08 0.08 0.08 0.08 0.07 0.06 0.06 0.07 0.07 0.06 0.05 0.04 0.04 0.04 0.05 0.05 0.04 0.02 0.02 0.03 0.05 0.08 0.10 0.08 0.06 0.07 0.10 0.12
0.02 0.02 0.04 0.07 0.07 0.08 0.09 0.08 0.07 0.08 0.08 0.06 0.05 0.04 0.05 0.06 0.05 0.04 0.04 0.04 0.04 0.05 0.07 0.06 0.06 0.05 0.04 0.04 0.03 0.03 0.04 0.03 0.02 0.02 0.04 0.05 0.08 0.08 0.07 0.07 0.07 0.07 0.08
0.02 0.02 0.03 0.05 0.05 0.06 0.06 0.07 0.07 0.06 0.06 0.05 0.04 0.04 0.04 0.04 0.03 0.03 0.03 0.03 0.03 0.04 0.06 0.05 0.05 0.06 0.05 0.05 0.04 0.03 0.03 0.02 0.02 0.02 0.05 0.07 0.08 0.07 0.07 0.07 0.07 0.06 0.07
0.01 0.02 0.03 0.04 0.04 0.04 0.04 0.05 0.05 0.06 0.06 0.06 0.06 0.05 0.04 0.03 0.03 0.02 0.02 0.03 0.03 0.03 0.04 0.04 0.04 0.07 0.08 0.08 0.07 0.05 0.03 0.02 0.01 0.03 0.03 0.05 0.05 0.06 0.05 0.05 0.05 0.06 0.07
0.01 0.02 0.03 0.03 0.02 0.02 0.03 0.04 0.04 0.04 0.05 0.05 0.05 0.03 0.03 0.03 0.03 0.02 0.01 0.02 0.04 0.03 0.03 0.02 0.03 0.07 0.11 0.10 0.08 0.07 0.04 0.02 0.01 0.02 0.04 0.06 0.06 0.06 0.05 0.06 0.07 0.07 0.07
0.01 0.02 0.02 0.01 0.01 0.02 0.02 0.01 0.02 0.03 0.03 0.02 0.02 0.02 0.01 0.02 0.02 0.02 0.01 0.02 0.03 0.03 0.02 0.02 0.02 0.03 0.08 0.07 0.07 0.06 0.03 0.02 0.01 0.03 0.07 0.10 0.09 0.08 0.07 0.07 0.08 0.07 0.06
0.01 0.02 0.01 0.01 0.01 0.01 0.01 0.02 0.02 0.02 0.01 0.01 0.01 0.01 0.01 0.01 0.01 0.01 0.01 0.04 0.03 0.02 0.02 0.02 0.01 0.02 0.03 0.03 0.03 0.03 0.02 0.02 0.02 0.02 0.05 0.10 0.09 0.09 0.09 0.09 0.07 0.06 0.05
0.02 0.02 0.01 0.00 0.01 0.01 0.01 0.02 0.02 0.02 0.02 0.01 0.00 0.01 0.01 0.01 0.01 0.01 0.02 0.03 0.04 0.03 0.02 0.02 0.01 0.02 0.01 0.02 0.02 0.01 0.01 0.01 0.03 0.03 0.06 0.08 0.08 0.10 0.10 0.10 0.09 0.07 0.07
0.01 0.01 0.01 0.01 0.01 0.01 0.01 0.02 0.03 0.03 0.02 0.02 0.01 0.01 0.01 0.01 0.01 0.01 0.01 0.02 0.03 0.02 0.02 0.02 0.02 0.01 0.01 0.01 0.01 0.01 0.01 0.02 0.03 0.04 0.07 0.08 0.12 0.16 0.14 0.12 0.10 0.07 0.06
0.02 0.01 0.01 0.01 0.01 0.01 0.01 0.03 0.02 0.02 0.01 0.01 0.01 0.02 0.01 0.02 0.02 0.01 0.01 0.01 0.02 0.02 0.03 0.02 0.02 0.01 0.01 0.01 0.01 0.01 0.01 0.02 0.02 0.03 0.04 0.05 0.07 0.13 0.13 0.11 0.10 0.08 0.06
0.01 0.01 0.01 0.01 0.01 0.01 0.02 0.03 0.02 0.02 0.01 0.01 0.01 0.01 0.02 0.03 0.04 0.02 0.01 0.01 0.02 0.03 0.03 0.03 0.02 0.01 0.01 0.01 0.01 0.01 0.02 0.02 0.02 0.01 0.02 0.03 0.03 0.05 0.08 0.10 0.08 0.07 0.05
0.01 0.01 0.01 0.01 0.01 0.01 0.02 0.03 0.02 0.02 0.02 0.01 0.01 0.01 0.02 0.03 0.03 0.03 0.04 0.03 0.02 0.01 0.02 0.04 0.03 0.02 0.02 0.02 0.02 0.02 0.02 0.02 0.02 0.01 0.01 0.01 0.01 0.02 0.05 0.07 0.05 0.06 0.05
0.01 0.01 0.01 0.00 0.01 0.01 0.02 0.01 0.01 0.01 0.02 0.01 0.01 0.01 0.01 0.01 0.02 0.02 0.03 0.03 0.02 0.01 0.01 0.02 0.02 0.01 0.01 0.01 0.03 0.03 0.03 0.03 0.03 0.02 0.02 0.01 0.01 0.01 0.02 0.03 0.02 0.03 0.03
0.01 0.01 0.00 0.00 0.01 0.01 0.01 0.01 0.01 0.01 0.02 0.01 0.01 0.00 0.01 0.01 0.02 0.03 0.03 0.02 0.01 0.03 0.05 0.03 0.02 0.01 0.01 0.01 0.02 0.03 0.03 0.03 0.03 0.03 0.02 0.01 0.01 0.00 0.00 0.01 0.01 0.01 0.02
0.01 0.01 0.00 0.00 0.00 0.01 0.01 0.01 0.01 0.01 0.02 0.01 0.01 0.01 0.02 0.02 0.02 0.03 0.03 0.02 0.01 0.02 0.03 0.04 0.05 0.03 0.02 0.02 0.02 0.02 0.02 0.02 0.02 0.04 0.04 0.02 0.01 0.00 0.01 0.01 0.01 0.01 0.02
0.01 0.01 0.01 0.00 0.00 0.01 0.01 0.01 0.01 0.01 0.01 0.01 0.01 0.01 0.03 0.03 0.03 0.03 0.04 0.03 0.03 0.03 0.02 0.02 0.03 0.04 0.05 0.04 0.03 0.02 0.02 0.02 0.02 0.02 0.02 0.02 0.02 0.01 0.00 0.01 0.01 0.01 0.02
0.02 0.02 0.02 0.01 0.01 0.01 0.01 0.01 0.01 0.01 0.01 0.01 0.01 0.01 0.01 0.02 0.02 0.03 0.04 0.03 0.02 0.02 0.01 0.02 0.02 0.01 0.03 0.05 0.05 0.04 0.03 0.03 0.02 0.01 0.01 0.01 0.01 0.01 0.01 0.01 0.01 0.01 0.02
0.02 0.02 0.03 0.02 0.02 0.03 0.02 0.02 0.02 0.03 0.01 0.01 0.01 0.01 0.01 0.02 0.02 0.02 0.04 0.04 0.02 0.01 0.01 0.01 0.02 0.01 0.02 0.03 0.04 0.05 0.04 0.04 0.03 0.03 0.01 0.01 0.01 0.01 0.01 0.02 0.02 0.02 0.02
0.01 0.02 0.02 0.02 0.03 0.02 0.02 0.02 0.02 0.02 0.02 0.02 0.02 0.01 0.02 0.03 0.02 0.02 0.03 0.03 0.02 0.01 0.01 0.01 0.01 0.01 0.01 0.02 0.02 0.02 0.03 0.03 0.03 0.03 0.02 0.01 0.01 0.01 0.02 0.01 0.02 0.02 0.02
0.01 0.01 0.02 0.03 0.03 0.03 0.02 0.01 0.01 0.01 0.01 0.01 0.01 0.01 0.02 0.03 0.02 0.01 0.01 0.01 0.02 0.01 0.01 0.01 0.01 0.01 0.01 0.01 0.02 0.02 0.01 0.01 0.01 0.01 0.02 0.02 0.01 0.01 0.01 0.01 0.02 0.02 0.02
0.01 0.02 0.03 0.03 0.02 0.02 0.01 0.01 0.01 0.01 0.01 0.00 0.01 0.01 0.01 0.02 0.02 0.01 0.01 0.01 0.01 0.01 0.01 0.01 0.01 0.02 0.02 0.01 0.02 0.02 0.01 0.02 0.02 0.01 0.01 0.01 0.02 0.01 0.01 0.01 0.01 0.02 0.03
MSLP
1010.92 1010.69 1010.61 1010.68 1010.86 1011.10 1011.34 1011.53 1011.63 1011.65 1011.62 1011.57 1011.55 1011.59 1011.69 1011.82 1011.95 1012.05 1012.08 1012.04 1011.95 1011.84 1011.73 1011.66 1011.65 1011.68 1011.75 1011.82 1011.85 1011.85 1011.81 1011.76 1011.71 1011.70 1011.76 1011.87 1012.02 1012.19 1012.35 1012.47 1012.55 1012.59 1012.63
1010.92 1010.73 1010.68 1010.78 1011.00 1011.27 1011.54 1011.75 1011.88 1011.92 1011.90 1011.86 1011.83 1011.86 1011.94 1012.04 1012.15 1012.23 1012.25 1012.21 1012.12 1012.03 1011.95 1011.93 1011.96 1012.03 1012.13 1012.21 1012.25 1012.24 1012.18 1012.12 1012.07 1012.08 1012.15 1012.30 1012.49 1012.69 1012.87 1013.01 1013.09 1013.13 1013.16
1010.84 1010.70 1010.70 1010.84 1011.09 1011.40 1011.70 1011.95 1012.12 1012.19 1012.20 1012.17 1012.15 1012.17 1012.22 1012.29 1012.36 1012.39 1012.38 1012.33 1012.25 1012.18 1012.15 1012.17 1012.25 1012.37 1012.50 1012.59 1012.63 1012.61 1012.54 1012.46 1012.41 1012.42 1012.52 1012.70 1012.93 1013.17 1013.39 1013.56 1013.66 1013.71 1013.75
1010.70 1010.62 1010.67 1010.85 1011.13 1011.48 1011.82 1012.11 1012.31 1012.43 1012.47 1012.47 1012.47 1012.48 1012.51 1012.54 1012.57 1012.56 1012.52 1012.45 1012.38 1012.34 1012.35 1012.43 1012.57 1012.74 1012.89 1013.00 1013.04 1013.01 1012.92 1012.83 1012.77 1012.80 1012.92 1013.12 1013.39 1013.67 1013.92 1014.12 1014.25 1014.33 1014.38
1010.54 1010.53 1010.62 1010.84 1011.15 1011.52 1011.89 1012.21 1012.44 1012.60 1012.68 1012.71 1012.73 1012.75 1012.77 1012.79 1012.79 1012.76 1012.69 1012.62 1012.56 1012.55 1012.61 1012.74 1012.93 1013.15 1013.34 1013.46 1013.50 1013.46 1013.37 1013.27 1013.21 1013.24 1013.38 1013.60 1013.89 1014.19 1014.47 1014.69 1014.85 1014.95 1015.02
1010.45 1010.48 1010.61 1010.85 1011.18 1011.55 1011.92 1012.25 1012.51 1012.68 1012.79 1012.86 1012.91 1012.96 1012.99 1013.01 1013.01 1012.98 1012.92 1012.86 1012.83 1012.86 1012.97 1013.15 1013.38 1013.63 1013.84 1013.98 1014.02 1013.98 1013.89 1013.80 1013.74 1013.78 1013.93 1014.16 1014.46 1014.77 1015.06 1015.29 1015.45 1015.57 1015.66
1010.46 1010.53 1010.68 1010.92 1011.24 1011.60 1011.95 1012.26 1012.50 1012.69 1012.82 1012.91 1013.00 1013.07 1013.15 1013.20 1013.23 1013.22 1013.20 1013.18 1013.19 1013.27 1013.42 1013.63 1013.90 1014.17 1014.40 1014.54 1014.59 1014.56 1014.48 1014.40 1014.37 1014.42 1014.57 1014.81 1015.10 1015.40 1015.67 1015.89 1016.05 1016.17 1016.26
1010.60 1010.68 1010.83 1011.07 1011.36 1011.67 1011.98 1012.24 1012.46 1012.62 1012.75 1012.87 1012.98 1013.10 1013.22 1013.33 1013.42 1013.48 1013.51 1013.55 1013.62 1013.74 1013.93 1014.18 1014.46 1014.74 1014.97 1015.12 1015.18 1015.17 1015.11 1015.05 1015.04 1015.11 1015.28 1015.51 1015.79 1016.06 1016.30 1016.50 1016.63 1016.73 1016.82
1010.83 1010.92 1011.07 1011.27 1011.52 1011.78 1012.02 1012.22 1012.38 1012.51 1012.63 1012.75 1012.89 1013.05 1013.23 1013.41 1013.57 1013.70 1013.82 1013.93 1014.06 1014.23 1014.46 1014.73 1015.02 1015.29 1015.52 1015.67 1015.74 1015.75 1015.72 1015.70 1015.72 1015.82 1016.00 1016.23 1016.49 1016.74 1016.95 1017.10 1017.21 1017.28 1017.35
1011.07 1011.16 1011.30 1011.49 1011.69 1011.89 1012.07 1012.20 1012.31 1012.39 1012.48 1012.59 1012.75 1012.95 1013.18 1013.42 1013.66 1013.87 1014.07 1014.26 1014.46 1014.68 1014.94 1015.22 1015.51 1015.78 1016.00 1016.16 1016.24 1016.27 1016.27 1016.30 1016.37 1016.50 1016.70 1016.94 1017.18 1017.41 1017.59 1017.71 1017.78 1017.82 1017.86
1011.24 1011.34 1011.47 1011.64 1011.81 1011.97 1012.09 1012.17 1012.23 1012.27 1012.33 1012.43 1012.60 1012.82 1013.09 1013.38 1013.68 1013.97 1014.24 1014.50 1014.76 1015.04 1015.32 1015.62 1015.92 1016.18 1016.40 1016.55 1016.65 1016.71 1016.75 1016.82 1016.94 1017.11 1017.34 1017.59 1017.84 1018.05 1018.21 1018.31 1018.35 1018.38 1018.41
1011.24 1011.35 1011.50 1011.67 1011.83 1011.97 1012.07 1012.12 1012.14 1012.15 1012.20 1012.29 1012.45 1012.68 1012.98 1013.31 1013.65 1014.00 1014.33 1014.66 1014.97 1015.29 1015.61 1015.93 1016.23 1016.50 1016.71 1016.88 1016.99 1017.08 1017.17 1017.28 1017.44 1017.65 1017.90 1018.18 1018.43 1018.65 1018.81 1018.90 1018.95 1018.97 1018.99
1011.03 1011.17 1011.34 1011.53 1011.71 1011.86 1011.96 1012.01 1012.03 1012.05 1012.09 1012.18 1012.34 1012.57 1012.87 1013.22 1013.60 1013.98 1014.36 1014.73 1015.09 1015.46 1015.81 1016.16 1016.48 1016.76 1016.99 1017.17 1017.31 1017.43 1017.55 1017.70 1017.89 1018.14 1018.41 1018.70 1018.98 1019.21 1019.37 1019.48 1019.54 1019.58 1019.61
1010.62 1010.79 1010.99 1011.21 1011.43 1011.62 1011.76 1011.85 1011.90 1011.95 1012.00 1012.11 1012.27 1012.51 1012.81 1013.16 1013.54 1013.95 1014.36 1014.77 1015.17 1015.58 1015.98 1016.36 1016.71 1017.02 1017.28 1017.49 1017.66 1017.81 1017.96 1018.13 1018.35 1018.61 1018.90 1019.20 1019.48 1019.72 1019.91 1020.04 1020.13 1020.20 1020.25
1010.07 1010.26 1010.49 1010.76 1011.02 1011.26 1011.46 1011.62 1011.74 1011.83 1011.94 1012.07 1012.25 1012.50 1012.80 1013.14 1013.53 1013.94 1014.37 1014.81 1015.26 1015.71 1016.15 1016.58 1016.97 1017.33 1017.63 1017.88 1018.08 1018.26 1018.43 1018.63 1018.85 1019.11 1019.39 1019.68 1019.96 1020.21 1020.41 1020.57 1020.69 1020.79 1020.88
1009.49 1009.68 1009.93 1010.22 1010.52 1010.82 1011.09 1011.33 1011.53 1011.70 1011.87 1012.06 1012.27 1012.53 1012.84 1013.19 1013.58 1014.00 1014.44 1014.90 1015.39 1015.88 1016.37 1016.85 1017.30 1017.70 1018.06 1018.35 1018.60 1018.82 1019.01 1019.21 1019.43 1019.67 1019.92 1020.18 1020.43 1020.67 1020.87 1021.04 1021.19 1021.32 1021.45
1009.00 1009.15 1009.38 1009.67 1010.00 1010.34 1010.68 1010.99 1011.28 1011.54 1011.79 1012.04 1012.30 1012.60 1012.92 1013.28 1013.68 1014.11 1014.57 1015.06 1015.57 1016.10 1016.63 1017.16 1017.66 1018.13 1018.54 1018.90 1019.20 1019.45 1019.68 1019.89 1020.09 1020.30 1020.51 1020.72 1020.92 1021.12 1021.30 1021.47 1021.63 1021.79 1021.94
1008.68 1008.76 1008.93 1009.18 1009.50 1009.86 1010.24 1010.62 1010.98 1011.33 1011.67 1011.99 1012.32 1012.66 1013.02 1013.40 1013.82 1014.26 1014.74 1015.25 1015.78 1016.34 1016.91 1017.48 1018.04 1018.56 1019.03 1019.45 1019.82 1020.12 1020.38 1020.60 1020.80 1020.97 1021.14 1021.29 1021.43 1021.57 1021.71 1021.85 1022.01 1022.17 1022.34
1008.58 1008.55 1008.62 1008.79 1009.05 1009.39 1009.78 1010.21 1010.64 1011.06 1011.48 1011.88 1012.28 1012.67 1013.08 1013.50 1013.94 1014.41 1014.91 1015.43 1015.99 1016.57 1017.16 1017.76 1018.35 1018.92 1019.46 1019.94 1020.37 1020.74 1021.05 1021.31 1021.50 1021.66 1021.78 1021.87 1021.95 1022.02 1022.11 1022.21 1022.34 1022.50 1022.68
1008.70 1008.51 1008.44 1008.49 1008.66 1008.95 1009.32 1009.76 1010.23 1010.72 1011.20 1011.68 1012.14 1012.60 1013.07 1013.53 1014.01 1014.51 1015.03 1015.57 1016.14 1016.72 1017.32 1017.94 1018.55 1019.16 1019.75 1020.29 1020.80 1021.24 1021.61 1021.91 1022.14 1022.29 1022.39 1022.43 1022.45 1022.47 1022.49 1022.55 1022.65 1022.80 1022.98
1008.97 1008.61 1008.37 1008.27 1008.32 1008.52 1008.85 1009.27 1009.76 1010.28 1010.82 1011.36 1011.89 1012.41 1012.94 1013.46 1013.98 1014.52 1015.06 1015.62 1016.19 1016.77 1017.37 1017.98 1018.60 1019.23 1019.85 1020.46 1021.03 1021.55 1022.00 1022.36 1022.64 1022.81 1022.91 1022.93 1022.92 1022.88 1022.86 1022.88 1022.96 1023.08 1023.26
1009.33 1008.78 1008.36 1008.09 1008.01 1008.10 1008.36 1008.74 1009.22 1009.76 1010.33 1010.91 1011.50 1012.08 1012.66 1013.24 1013.82 1014.39 1014.97 1015.54 1016.12 1016.69 1017.28 1017.88 1018.50 1019.13 1019.78 1020.43 1021.06 1021.65 1022.18 1022.61 1022.95 1023.18 1023.29 1023.32 1023.30 1023.24 1023.20 1023.19 1023.25 1023.37 1023.56
1009.70 1008.97 1008.37 1007.94 1007.70 1007.68 1007.84 1008.16 1008.61 1009.14 1009.72 1010.34 1010.97 1011.60 1012.23 1012.87 1013.50 1014.13 1014.74 1015.34 1015.93 1016.51 1017.08 1017.67 1018.27 1018.90 1019.56 1020.23 1020.90 1021.55 1022.15 1022.66 1023.06 1023.34 1023.51 1023.57 1023.56 1023.51 1023.47 1023.46 1023.52 1023.65 1023.85
1010.03 1009.14 1008.37 1007.78 1007.41 1007.26 1007.32 1007.56 1007.95 1008.45 1009.03 1009.65 1010.30 1010.98 1011.66 1012.36 1013.05 1013.73 1014.40 1015.04 1015.65 1016.24 1016.82 1017.39 1017.98 1018.59 1019.25 1019.93 1020.62 1021.31 1021.95 1022.52 1022.98 1023.32 1023.53 1023.64 1023.66 1023.65 1023.63 1023.66 1023.74 1023.90 1024.12
1010.27 1009.26 1008.36 1007.63 1007.13 1006.85 1006.80 1006.95 1007.27 1007.71 1008.26 1008.88 1009.54 1010.24 1010.98 1011.72 1012.48 1013.23 1013.96 1014.65 1015.31 1015.93 1016.52 1017.10 1017.68 1018.29 1018.92 1019.60 1020.29 1020.99 1021.65 1022.24 1022.74 1023.12 1023.39 1023.54 1023.61 1023.64 1023.67 1023.74 1023.87 1024.07 1024.33
1010.44 1009.34 1008.34 1007.50 1006.87 1006.47 1006.31 1006.35 1006.58 1006.96 1007.45 1008.04 1008.71 1009.43 1010.20 1011.00 1011.82 1012.64 1013.45 1014.21 1014.93 1015.60 1016.23 1016.83 1017.42 1018.02 1018.64 1019.29 1019.97 1020.65 1021.30 1021.89 1022.40 1022.81 1023.10 1023.29 1023.41 1023.50 1023.58 1023.71 1023.89 1024.14 1024.45
Thickness
5772 5774 5770 5771 5772 5772 5773 5774 5774 5774 5774 5773 5773 5773 5773 5773 5773 5772 5773 5773 5773 5773 5773 5772 5772 5772 5772 5772 5772 5772 5772 5772 5772 5772 5771 5771 5770 5770 5769 5769 5769 5770 5768
5773 5772 5768 5769 5769 5770 5770 5771 5771 5771 5771 5770 5770 5770 5770 5770 5769 5769 5769 5770 5770 5769 5769 5769 5769 5769 5769 5769 5769 5769 5769 5769 5769 5769 5769 5769 5768 5768 5767 5767 5767 5767 5766
5771 5770 5768 5767 5767 5767 5768 5768 5768 5767 5767 5767 5767 5767 5767 5767 5766 5766 5766 5766 5766 5766 5766 5766 5766 5766 5766 5766 5766 5766 5766 5766 5766 5767 5768 5769 5767 5765 5765 5764 5765 5764 5763
5769 5768 5766 5764 5764 5764 5764 5764 5764 5763 5763 5763 5763 5763 5763 5763 5763 5762 5762 5762 5762 5762 5762 5762 5762 5762 5763 5762 5762 5762 5762 5763 5763 5765 5767 5767 5766 5762 5762 5762 5762 5761 5761
5766 5765 5763 5761 5761 5761 5760 5760 5760 5760 5760 5759 5759 5759 5759 5759 5759 5759 5759 5759 5759 5758 5758 5758 5758 5759 5759 5759 5759 5759 5759 5759 5760 5763 5763 5763 5762 5759 5758 5758 5758 5757 5757
5763 5762 5759 5757 5757 5757 5757 5757 5756 5756 5756 5756 5756 5756 5756 5756 5756 5755 5755 5755 5755 5755 5755 5755 5755 5755 5755 5755 5755 5755 5755 5756 5758 5760 5759 5759 5758 5755 5755 5754 5754 5754 5754
5760 5759 5756 5753 5753 5753 5753 5753 5752 5752 5752 5752 5752 5752 5752 5752 5752 5752 5751 5751 5751 5751 5751 5751 5751 5751 5750 5750 5750 5750 5751 5752 5756 5756 5755 5755 5753 5751 5751 5751 5750 5750 5750
5756 5756 5753 5750 5750 5749 5749 5749 5748 5748 5748 5748 5747 5747 5747 5747 5748 5747 5747 5747 5747 5747 5747 5747 5747 5747 5746 5746 5746 5746 5746 5748 5751 5752 5751 5750 5747 5747 5747 5747 5746 5746 5746
5753 5752 5752 5750 5748 5746 5745 5744 5744 5744 5743 5743 5743 5743 5743 5743 5743 5743 5743 5743 5743 5743 5743 5743 5743 5743 5742 5742 5741 5741 5742 5743 5747 5747 5747 5745 5742 5742 5742 5742 5742 5741 5741
5750 5749 5749 5748 5747 5746 5743 5740 5740 5739 5739 5739 5738 5738 5739 5739 5739 5739 5740 5739 5739 5739 5738 5738 5738 5738 5738 5737 5737 5737 5738 5740 5743 5742 5742 5739 5737 5737 5737 5737 5737 5737 5737
5745 5746 5746 5746 5744 5743 5741 5738 5737 5736 5735 5735 5735 5735 5736 5738 5738 5737 5735 5734 5734 5734 5733 5733 5733 5733 5734 5733 5733 5733 5735 5737 5737 5737 5735 5733 5732 5733 5733 5733 5733 5732 5732
5740 5742 5743 5743 5742 5740 5739 5737 5736 5735 5733 5733 5733 5734 5735 5735 5733 5733 5730 5730 5729 5729 5729 5728 5728 5729 5731 5732 5730 5730 5733 5733 5733 5732 5729 5727 5727 5727 5728 5728 5728 5727 5727
5739 5738 5739 5740 5739 5738 5736 5735 5733 5731 5730 5730 5731 5730 5730 5731 5730 5730 5729 5728 5728 5727 5728 5726 5727 5728 5728 5727 5727 5728 5728 5728 5727 5726 5723 5722 5722 5723 5723 5722 5722 5722 5722
5737 5736 5736 5736 5736 5735 5734 5732 5730 5729 5728 5727 5727 5727 5728 5727 5727 5727 5727 5726 5725 5725 5724 5724 5723 5724 5724 5724 5724 5724 5723 5722 5721 5720 5717 5716 5716 5717 5717 5717 5717 5717 5717
5733 5733 5733 5733 5732 5731 5729 5728 5727 5726 5725 5724 5723 5723 5724 5724 5724 5724 5723 5721 5721 5721 5720 5720 5720 5719 5719 5718 5717 5717 5717 5716 5715 5714 5712 5710 5710 5711 5711 5712 5712 5712 5712
5732 5732 5731 5730 5729 5728 5727 5725 5724 5723 5720 5721 5720 5720 5721 5720 5720 5719 5718 5717 5717 5716 5715 5715 5715 5713 5713 5712 5711 5711 5710 5710 5709 5708 5707 5705 5704 5704 5705 5706 5707 5707 5707
5731 5730 5728 5727 5726 5726 5724 5722 5721 5719 5718 5717 5717 5717 5716 5716 5716 5715 5714 5712 5712 5711 5712 5711 5710 5709 5707 5706 5706 5705 5704 5704 5704 5704 5702 5701 5700 5699 5699 5700 5701 5702 5702
5729 5728 5726 5724 5723 5722 5720 5718 5717 5716 5715 5714 5713 5713 5713 5712 5712 5710 5709 5708 5707 5706 5706 5706 5705 5703 5702 5701 5701 5700 5700 5698 5698 5698 5698 5697 5696 5696 5694 5694 5695 5696 5697
5727 5725 5722 5721 5720 5718 5717 5715 5714 5713 5711 5711 5710 5709 5709 5708 5707 5707 5705 5703 5703 5702 5701 5701 5700 5699 5696 5694 5694 5694 5694 5693 5692 5692 5693 5693 5692 5691 5691 5689 5689 5690 5692
5724 5723 5720 5718 5716 5715 5713 5712 5710 5709 5708 5707 5706 5704 5704 5704 5703 5702 5701 5700 5699 5698 5696 5695 5694 5692 5691 5690 5690 5688 5688 5688 5687 5686 5686 5686 5686 5686 5686 5686 5686 5686 5686
5720 5719 5717 5715 5713 5711 5709 5708 5706 5705 5704 5703 5702 5701 5700 5700 5699 5698 5697 5696 5694 5693 5691 5691 5689 5687 5685 5686 5684 5682 5682 5683 5682 5680 5679 5679 5679 5678 5679 5680 5681 5682 5682
5716 5715 5714 5713 5711 5709 5707 5706 5704 5703 5702 5700 5698 5697 5696 5695 5694 5693 5693 5692 5690 5687 5686 5685 5683 5682 5681 5681 5680 5677 5675 5675 5674 5675 5674 5673 5673 5672 5673 5674 5675 5675 5676
5713 5712 5710 5709 5708 5706 5704 5703 5701 5699 5697 5696 5694 5693 5692 5691 5690 5689 5688 5688 5686 5685 5683 5680 5679 5677 5676 5676 5677 5674 5671 5670 5669 5669 5668 5668 5667 5667 5667 5667 5668 5669 5670
5710 5709 5708 5707 5706 5704 5702 5700 5697 5694 5693 5693 5692 5690 5689 5687 5686 5684 5684 5683 5682 5681 5679 5678 5676 5675 5672 5671 5670 5669 5670 5669 5664 5663 5663 5663 5662 5661 5662 5662 5662 5662 5663
5708 5705 5704 5703 5702 5700 5699 5697 5694 5693 5692 5691 5689 5687 5686 5684 5682 5681 5680 5679 5678 5677 5676 5674 5672 5671 5670 5668 5666 5664 5663 5662 5663 5660 5657 5656 5657 5657 5656 5656 5656 5656 5656
5703 5701 5699 5698 5697 5696 5694 5693 5691 5690 5688 5686 5684 5683 5682 5681 5679 5678 5676 5675 5675 5673 5672 5670 5669 5667 5666 5665 5663 5662 5660 5658 5657 5656 5655 5653 5652 5651 5650 5650 5650 5650 5650